Wind_Speed
1 5 5 4 7 9 8 9 9 11 11 10 7 4 2 2 5 6 8 11 12 10 10 9 6 6 10 13 16 20 23 25 27 29 31 31 31 31 30 29 28 27 26 24 22 21 21 22 21 18 15 14 12 12 11 13 14 14 15 16 17 18 19 19 19 18 18 19 19 18 15 13 12 12 13 14 14 14 14 13 13 12 10 11 13 13 12
4 6 6 6 6 7 8 9 10 10 10 7 6 5 3 4 5 10 14 12 7 5 6 6 6 10 18 21 21 23 24 25 28 31 32 32 32 32 32 31 31 30 29 28 26 25 25 24 23 22 20 17 15 15 15 16 16 16 16 17 17 18 19 19 20 20 20 21 20 17 15 15 15 14 13 13 13 13 13 12 11 11 10 11 14 15 13
4 6 7 8 7 7 8 9 10 11 10 6 5 6 5 8 8 10 14 12 6 4 7 12 11 13 21 22 21 23 23 24 28 31 31 31 31 31 31 32 32 31 31 30 29 29 29 27 26 25 24 23 23 23 21 20 19 18 19 19 19 19 18 17 17 18 17 18 18 17 16 17 17 16 16 15 15 14 13 12 12 11 10 11 14 15 14
2 5 5 5 6 6 8 10 11 11 8 4 3 3 2 5 9 11 11 8 5 4 10 15 12 12 18 20 18 21 22 23 28 30 30 30 30 30 30 30 31 32 32 31 30 30 30 29 29 28 26 27 28 28 27 26 24 23 23 23 22 21 19 18 16 15 15 15 16 17 18 18 18 18 16 15 15 16 13 11 13 13 12 12 14 15 15
1 4 2 3 4 5 4 5 8 7 6 4 1 3 4 4 7 9 7 4 5 8 11 12 9 10 15 16 17 20 22 24 27 28 27 26 25 27 27 28 29 31 32 32 32 31 30 30 31 30 29 29 29 28 28 27 25 25 24 24 23 22 21 20 18 17 15 14 14 14 14 15 15 15 14 12 14 16 15 11 12 14 15 15 15 16 16
1 5 3 5 4 2 1 1 4 5 6 3 3 6 6 6 5 5 5 6 8 10 11 10 9 11 14 16 19 21 23 25 27 26 24 21 20 22 21 21 23 26 28 29 29 29 30 31 31 31 31 31 30 29 28 27 26 25 24 24 23 22 21 19 19 18 17 16 15 13 11 10 10 8 8 8 9 13 15 15 15 16 18 19 18 18 18
1 3 3 4 3 1 1 2 3 5 6 3 8 10 8 8 9 10 10 9 11 12 14 15 16 18 21 22 22 22 22 22 24 24 22 19 17 18 17 16 16 20 23 23 23 24 26 27 28 29 29 29 28 28 27 26 26 25 24 24 23 21 20 19 18 17 16 15 14 13 11 10 9 9 8 7 7 8 11 14 17 17 18 19 20 21 21
2 2 2 2 2 1 2 3 5 6 6 5 9 10 7 4 7 11 10 9 11 16 20 21 21 23 27 27 23 21 20 20 21 22 21 18 16 15 15 15 15 17 18 18 18 18 19 20 22 24 24 23 23 25 25 25 24 23 23 23 22 21 20 18 16 15 14 14 13 12 11 10 9 10 10 10 10 10 10 11 13 14 14 14 15 16 17
3 3 2 2 1 2 3 3 4 3 1 3 3 5 4 4 3 12 13 10 10 15 21 23 24 26 27 22 17 16 17 17 18 20 19 16 15 14 13 12 13 13 13 13 13 13 13 13 14 15 16 15 17 20 20 20 19 18 18 19 18 17 16 16 15 13 12 12 12 10 10 9 8 9 10 10 11 11 11 11 11 12 12 11 10 9 8
2 4 3 2 1 1 2 2 5 5 4 3 1 3 3 5 4 14 16 14 13 16 20 22 21 21 17 9 6 11 14 14 15 17 17 16 15 14 13 12 10 9 8 8 8 7 7 7 8 7 7 9 12 13 13 13 12 10 11 11 11 10 10 10 9 9 9 10 8 5 6 7 8 8 9 9 10 10 10 10 11 11 12 12 11 10 9
2 4 3 2 1 1 3 5 7 7 5 3 2 4 2 3 6 15 16 16 17 18 20 17 13 12 7 0 3 10 13 11 13 15 15 16 16 15 15 13 12 10 8 7 6 5 4 3 4 4 3 3 4 6 6 6 4 3 3 3 3 3 3 3 3 3 5 8 8 7 8 8 9 10 10 10 11 11 11 11 11 12 12 13 12 12 11
2 3 2 2 1 2 3 5 9 11 8 4 3 3 1 1 9 16 18 19 18 17 17 13 7 6 7 9 12 15 15 13 13 13 13 14 14 14 13 12 11 11 9 8 8 8 6 5 5 5 3 3 3 4 4 3 2 2 2 2 4 4 3 3 3 4 4 5 8 10 10 11 12 12 14 14 15 16 16 16 17 16 17 17 17 16 16
3 4 3 1 1 2 4 7 12 10 3 1 2 3 3 6 13 16 18 20 18 16 16 12 8 10 18 22 22 19 17 14 13 12 11 11 10 10 10 10 9 9 8 7 7 8 8 7 6 5 5 4 5 6 6 5 5 4 3 3 4 5 7 7 7 7 8 8 9 10 12 13 13 14 15 16 18 19 19 20 21 21 22 22 22 21 21
3 3 2 1 0 3 9 11 9 6 4 3 1 1 4 12 18 17 18 19 17 16 20 22 22 24 27 27 24 20 16 14 12 11 9 9 8 7 7 6 6 6 6 7 7 6 6 6 5 6 6 5 5 6 6 6 7 6 5 5 6 7 8 9 10 10 11 11 12 13 14 15 15 16 16 17 18 19 20 21 22 23 24 25 26 26 26
2 2 3 3 1 7 15 11 4 5 3 4 4 9 11 17 21 20 19 21 21 22 27 30 30 29 26 24 22 19 16 13 12 11 10 10 9 6 4 3 4 5 5 7 7 7 7 7 6 5 5 4 4 3 4 5 6 6 7 8 9 10 11 12 13 14 14 15 15 16 16 17 17 18 19 19 20 20 21 22 23 24 25 26 27 29 29
2 2 3 2 2 6 13 8 4 5 4 7 13 18 17 17 20 23 23 23 24 28 31 31 29 26 24 22 20 18 15 14 12 10 9 8 7 5 3 2 2 3 5 6 8 10 10 10 8 6 4 3 2 2 3 5 5 7 9 10 12 14 15 15 16 16 17 17 17 18 18 19 19 20 20 21 21 21 21 22 22 23 24 25 26 27 28
3 4 3 4 5 10 18 19 16 15 15 17 21 25 22 19 20 24 25 24 26 29 30 29 27 24 22 20 18 16 15 13 11 9 7 5 4 4 3 1 0 1 3 5 7 10 10 8 5 4 4 3 2 3 4 5 7 9 11 13 15 16 17 18 18 19 19 19 19 19 20 20 21 21 21 22 21 21 20 20 20 21 21 23 24 25 26
7 9 8 8 11 17 22 23 21 21 22 22 25 28 26 23 23 25 26 25 26 27 27 26 24 22 20 18 15 14 12 11 10 8 6 3 2 2 2 2 0 1 2 4 5 5 5 4 2 2 3 3 4 5 6 8 10 12 14 16 17 19 20 21 22 22 22 22 21 21 20 20 19 19 20 21 21 21 20 19 19 19 20 22 24 25 26
4 5 5 8 13 18 21 23 23 23 23 23 24 26 25 24 24 23 24 24 23 23 23 23 22 20 17 16 14 11 10 10 8 7 5 2 0 1 3 2 2 2 3 3 2 1 1 1 1 1 3 5 6 8 9 12 13 16 18 19 21 22 22 23 23 24 23 23 22 21 20 19 18 18 18 19 19 20 20 20 20 20 21 23 24 26 27
3 4 6 11 16 18 19 20 21 21 21 21 21 22 22 21 21 19 19 19 19 19 20 20 19 17 14 13 12 11 11 10 8 7 5 2 1 2 4 2 3 3 2 1 2 1 1 1 1 4 6 8 10 11 14 16 17 19 20 21 22 22 22 22 22 23 23 23 22 20 19 19 18 18 18 19 19 20 20 21 22 23 24 25 25 27 28
5 5 8 13 14 12 14 18 19 18 19 19 19 19 19 19 19 19 17 15 15 17 17 16 16 16 14 12 12 13 12 11 9 7 5 3 2 3 4 0 5 5 3 4 4 4 3 4 5 6 8 10 13 14 15 16 18 19 19 19 19 19 19 19 19 20 21 21 20 19 19 19 19 18 17 18 19 19 19 19 20 23 25 26 27 27 28
2 3 7 10 7 5 9 17 19 16 17 18 18 17 16 15 15 14 13 12 12 12 12 11 12 13 12 10 9 9 9 8 7 5 3 2 1 4 4 2 4 3 4 5 5 4 4 5 7 7 8 10 11 12 12 15 17 18 17 17 17 17 17 17 17 18 18 17 17 17 18 19 19 17 16 15 15 16 17 17 18 20 22 25 27 29 30
4 7 11 12 10 10 13 16 16 14 15 16 16 15 14 12 10 9 9 10 10 10 9 8 7 8 8 6 6 6 6 5 5 4 2 2 3 4 3 2 3 2 4 6 6 5 5 7 8 6 6 8 8 9 12 16 18 17 17 19 19 17 17 16 15 15 15 16 17 17 18 19 20 20 18 15 14 13 15 16 17 18 19 22 24 26 28
6 9 13 14 14 13 13 13 13 12 12 12 12 11 10 8 8 7 6 7 9 10 10 7 5 4 4 4 5 6 6 5 4 3 2 3 4 3 2 2 4 5 5 6 5 5 5 5 4 3 4 6 7 9 13 17 17 16 18 22 21 17 16 15 15 15 17 17 18 19 20 20 20 20 20 19 16 14 13 14 16 16 17 19 21 22 24
9 11 14 15 16 16 14 13 13 12 11 10 11 9 7 7 7 6 6 7 8 9 9 7 4 2 2 4 6 6 4 4 4 3 3 4 4 5 4 4 5 6 5 4 5 6 5 3 1 2 4 5 6 9 13 17 16 16 20 23 20 15 13 13 15 17 18 18 18 19 20 19 19 19 19 20 19 16 14 13 12 12 12 15 17 19 21
14 16 17 18 19 19 16 13 13 12 11 10 11 10 8 7 6 5 5 7 9 8 7 6 4 4 5 6 6 4 3 4 4 3 3 4 4 5 6 7 9 9 8 6 6 6 6 5 3 4 4 3 5 8 12 15 16 17 20 21 18 13 11 13 15 17 18 18 17 17 17 17 17 17 16 16 17 18 17 16 13 11 9 9 12 15 17
14 15 16 16 15 14 13 13 13 12 10 9 9 8 7 5 3 3 6 9 9 7 5 4 5 7 9 8 6 4 4 5 4 3 4 5 6 7 8 8 9 11 12 13 11 9 8 8 5 3 1 2 5 7 10 14 17 18 19 19 16 13 12 12 14 16 18 18 16 15 15 15 14 14 15 14 14 14 14 15 17 16 12 8 8 11 14
13 12 11 12 12 11 11 11 10 9 9 8 7 6 5 3 3 5 8 10 9 6 5 5 6 8 9 7 6 5 6 5 4 5 7 8 8 9 10 9 9 10 11 13 14 12 12 11 8 3 2 4 5 7 10 15 17 16 15 15 15 15 14 13 14 15 17 17 15 15 14 13 11 11 12 11 11 11 11 12 15 16 15 12 11 11 13
14 12 11 10 10 9 8 7 7 6 6 5 5 4 4 5 5 5 7 8 8 6 6 7 8 8 6 5 4 5 6 6 6 7 9 9 10 11 11 13 14 14 13 11 14 16 14 12 10 6 3 5 7 8 12 15 15 14 14 13 14 16 16 14 13 15 17 17 16 15 13 11 10 10 10 9 10 11 12 12 13 15 15 15 15 12 11
14 13 12 10 9 7 6 7 9 8 6 5 5 5 4 5 6 6 6 8 9 7 7 8 9 7 5 5 5 6 7 7 7 9 11 13 14 15 16 17 17 17 13 11 16 18 15 11 9 7 5 5 7 9 12 15 14 13 14 13 13 17 17 13 12 15 17 16 14 12 10 8 8 8 8 9 10 11 12 12 13 14 15 16 16 14 11
13 11 10 9 9 9 6 3 5 8 7 6 8 9 8 6 6 6 6 8 9 8 7 7 6 5 5 5 6 6 7 8 10 13 16 17 17 17 17 18 18 16 11 13 17 17 14 10 7 7 7 7 7 9 12 13 12 13 14 13 13 17 18 14 13 14 13 12 11 11 9 7 5 5 7 9 11 11 11 11 12 12 14 15 15 13 11
12 11 10 8 8 8 5 2 1 6 9 9 10 12 10 8 7 7 7 7 9 9 8 6 5 5 5 6 7 7 9 12 15 17 17 16 16 16 17 18 17 13 13 16 16 15 13 9 7 7 7 6 7 10 11 11 10 12 13 12 12 15 17 14 12 10 9 10 11 11 9 6 4 4 7 9 10 10 10 11 12 12 14 15 15 12 10
11 11 11 9 9 7 4 2 3 4 4 5 9 11 10 8 8 8 8 7 8 8 6 5 5 5 6 7 8 9 12 15 16 15 14 13 14 15 15 14 11 12 16 17 16 14 12 9 7 6 5 5 8 10 10 9 9 11 12 11 13 15 15 12 8 6 7 9 10 10 7 4 3 4 7 9 10 10 12 13 14 15 15 14 13 12 10
6 9 10 10 10 8 5 3 3 3 3 3 5 8 9 8 7 8 9 9 8 8 7 7 7 6 7 8 9 11 14 14 14 12 11 10 10 10 8 6 9 14 17 18 16 15 12 9 7 5 4 7 9 9 10 9 9 11 10 10 12 15 14 10 4 3 6 8 8 8 6 5 3 4 5 8 10 12 14 16 17 18 17 14 12 11 10
2 6 8 8 6 7 7 7 5 5 4 3 3 5 8 8 8 9 9 10 11 10 9 8 7 6 7 7 8 11 12 12 11 9 7 6 6 6 5 6 9 13 16 17 17 15 11 8 6 5 6 9 9 10 10 9 9 10 9 10 12 14 13 9 4 2 4 6 7 6 6 6 5 4 5 6 8 11 13 16 18 19 19 17 13 10 9
1 6 9 8 7 6 7 7 6 6 5 3 2 4 6 7 8 8 8 9 11 11 8 7 7 7 7 7 8 10 11 10 9 7 4 4 4 5 6 7 9 11 14 16 16 14 10 7 6 7 9 10 10 11 10 8 9 9 8 9 11 13 12 8 5 2 2 2 3 5 7 6 5 5 5 6 7 9 12 15 17 19 20 19 15 11 8
5 8 7 6 6 5 3 2 1 2 3 3 2 3 4 6 6 6 5 7 9 10 8 7 7 7 7 7 7 8 9 9 8 5 3 3 3 4 6 7 9 11 13 14 14 11 9 7 7 9 10 11 11 11 9 8 9 8 7 8 11 13 12 8 5 5 5 3 1 1 4 5 5 5 4 5 6 9 11 14 17 18 17 15 14 14 13
5 5 5 5 7 7 7 6 4 4 4 3 3 3 4 5 6 7 6 6 7 8 8 8 7 6 6 6 7 7 7 8 7 3 2 3 2 3 5 7 10 11 13 14 12 10 7 7 9 10 10 11 11 10 9 9 8 7 6 7 10 14 13 9 7 8 8 6 3 2 2 3 4 4 3 3 5 8 11 13 16 16 13 12 14 16 16
0 3 5 5 6 6 6 7 7 5 4 3 3 4 5 5 6 7 7 6 5 6 6 7 7 7 6 7 6 5 6 7 6 4 2 2 3 3 4 8 11 12 13 13 12 9 6 6 8 10 10 11 11 9 9 9 8 5 5 6 9 13 14 12 10 9 9 8 7 5 4 4 4 3 3 2 4 8 11 13 15 14 11 12 13 13 14
6 5 6 7 6 6 4 3 3 4 4 4 4 4 5 5 6 6 7 7 7 6 6 7 8 8 7 7 6 6 6 6 5 4 4 3 4 5 6 9 12 13 12 11 10 7 5 5 7 9 10 11 10 8 8 9 7 4 3 5 8 11 14 14 13 11 9 8 7 7 5 4 4 3 2 1 3 7 9 11 13 13 12 13 12 10 9
8 8 8 8 7 8 7 5 3 3 4 5 6 6 5 5 6 6 7 7 7 7 7 8 8 8 7 6 7 8 8 8 7 6 6 4 5 6 8 9 10 10 10 10 9 6 4 5 6 6 6 7 8 9 9 9 7 4 3 4 7 9 13 15 14 11 10 7 5 5 3 1 2 2 1 1 4 6 7 8 12 12 11 11 10 7 5
9 9 9 9 9 10 11 12 12 10 8 7 7 7 7 7 7 8 8 8 8 9 9 8 8 8 7 6 7 9 10 9 7 6 5 4 3 5 8 9 8 8 8 9 9 7 6 7 8 7 5 5 8 10 10 9 7 5 3 4 5 8 11 14 13 11 10 9 9 7 6 5 4 2 1 2 4 4 5 8 11 10 9 8 8 7 6
9 9 10 10 10 10 10 12 15 15 14 13 10 9 9 9 9 9 9 10 10 10 9 8 8 8 7 6 8 9 9 7 5 5 5 5 3 3 5 6 8 8 8 8 9 9 8 9 11 10 6 6 8 10 10 10 8 6 4 3 3 6 10 12 12 11 8 8 9 9 7 7 7 5 3 3 3 4 6 9 10 9 8 8 8 8 8
8 9 9 9 9 8 7 8 10 12 13 14 14 13 14 13 12 11 10 10 11 11 11 10 10 9 8 7 9 9 8 6 5 6 7 7 7 6 5 6 7 8 9 8 9 9 10 11 12 11 8 7 9 10 9 10 9 6 4 3 3 5 8 10 11 11 8 6 7 8 8 8 7 6 4 4 4 4 6 8 8 8 8 8 8 8 8
7 8 9 9 8 8 8 8 9 10 11 13 14 14 15 15 14 13 12 11 11 12 12 11 10 10 10 10 10 10 9 7 6 7 8 8 8 8 8 8 9 9 9 8 9 9 9 11 12 11 9 8 10 11 9 8 8 7 6 4 3 4 7 8 10 12 10 6 4 5 7 7 6 5 4 3 2 2 3 4 6 8 7 6 6 6 7
7 8 8 8 8 8 8 8 8 9 10 13 15 15 13 12 12 12 11 11 11 11 11 11 11 10 10 11 11 10 9 8 8 9 9 9 8 9 9 9 9 9 10 11 11 10 8 8 10 10 9 11 13 12 10 8 8 7 6 5 4 5 7 8 9 11 12 9 5 4 5 5 5 5 4 3 2 3 3 5 6 7 7 5 5 6 7
9 9 9 10 11 10 9 8 8 9 11 12 12 12 10 9 10 10 9 9 10 9 9 10 11 11 11 11 11 10 8 8 9 10 11 10 9 9 10 9 8 8 9 11 12 10 7 7 8 9 10 14 15 13 11 10 9 8 7 6 6 7 8 9 10 10 11 11 9 4 4 4 5 5 5 4 4 5 7 9 10 9 8 7 6 6 7
9 9 9 11 11 10 9 8 9 11 11 10 7 6 6 7 8 9 8 9 10 9 8 8 9 10 11 12 13 12 10 8 8 9 10 10 9 9 8 7 7 6 8 9 10 9 9 10 10 10 12 16 17 15 13 13 12 11 10 9 8 9 9 10 11 11 11 11 10 7 5 4 3 4 5 5 5 6 7 8 9 9 8 8 7 6 6
8 8 8 8 8 8 8 7 8 9 9 7 5 4 4 6 8 8 9 10 11 10 9 9 10 10 11 11 12 13 13 11 9 8 8 9 9 8 7 7 7 6 6 6 7 7 8 10 11 12 14 17 17 16 15 14 13 12 12 11 11 10 10 11 11 11 11 11 10 8 7 7 6 3 1 3 4 5 5 5 5 5 5 5 4 3 3
7 7 7 6 7 8 8 8 8 7 7 6 5 4 5 6 7 8 9 9 9 9 9 10 11 12 12 12 12 12 13 13 12 9 8 8 7 7 7 7 7 6 5 4 4 5 6 8 10 12 13 14 14 14 12 11 11 11 11 12 12 12 12 12 12 12 11 10 9 9 8 8 7 6 4 2 1 2 1 1 1 1 1 1 1 1 1
7 7 7 6 7 7 6 6 6 6 5 5 6 6 6 5 4 5 6 7 7 7 7 9 10 10 9 10 12 14 14 13 13 11 9 8 6 5 5 6 6 6 5 4 2 3 5 7 10 10 10 10 10 9 8 7 7 8 9 10 11 11 11 12 11 11 10 10 9 9 8 8 8 7 6 5 4 4 5 5 5 5 5 4 4 4 4
7 7 6 6 6 5 4 4 4 5 5 6 6 7 6 4 4 4 5 5 5 4 4 5 7 6 5 6 8 12 13 12 12 12 12 10 8 6 6 6 6 6 6 5 4 4 4 6 8 9 9 8 7 6 5 5 5 5 6 7 7 8 8 9 9 9 9 10 9 8 7 7 6 5 6 6 6 6 6 7 8 8 8 8 8 8 7
Wind_Direction
359 26 27 44 88 85 59 41 29 14 7 17 29 358 309 128 143 163 163 147 138 149 158 150 152 140 120 111 104 99 92 87 86 85 83 82 82 84 85 86 87 88 90 93 100 109 116 120 122 126 135 147 158 163 163 161 163 167 170 166 162 164 168 170 176 180 178 174 174 175 173 173 175 173 174 177 173 167 168 173 179 184 183 187 193 195 200
11 29 27 17 56 88 62 35 25 14 0 1 17 7 21 78 119 139 136 129 120 129 137 106 87 106 109 104 98 93 89 87 87 84 81 79 79 80 82 83 85 87 88 90 94 99 102 106 112 115 116 122 128 130 138 153 165 169 165 160 160 166 169 171 175 179 178 175 175 172 164 161 163 162 164 175 180 178 180 182 184 188 192 192 193 196 203
1 22 38 23 33 75 66 34 17 9 356 350 6 6 37 70 85 111 119 116 101 71 75 75 79 101 101 94 89 88 89 92 91 87 84 82 81 81 81 82 85 88 91 92 94 96 98 101 108 113 115 116 117 120 127 135 140 145 150 151 152 154 156 159 165 171 172 172 170 163 159 163 168 171 173 180 190 197 199 196 191 193 200 202 199 202 207
355 16 47 40 27 43 48 27 5 353 341 335 3 350 356 99 114 118 115 116 125 102 81 78 77 85 89 87 87 89 89 91 91 89 87 85 85 85 83 83 85 88 89 89 90 92 96 101 106 110 115 117 116 116 119 122 126 132 137 138 136 133 134 137 145 154 160 165 168 167 169 175 179 182 184 186 191 197 203 206 201 196 200 204 204 207 212
320 336 29 93 50 22 30 7 344 328 301 282 52 62 49 75 115 130 132 131 126 115 99 91 80 74 81 87 91 93 94 92 92 92 90 87 86 87 84 81 82 86 86 84 86 89 93 97 101 105 109 112 113 114 117 121 128 133 135 135 132 128 128 131 137 143 147 153 161 167 171 177 182 186 191 195 196 196 196 201 202 200 203 207 208 211 216
297 321 350 106 92 49 189 250 321 323 304 295 98 86 67 64 77 99 108 103 100 102 103 106 108 100 96 97 98 100 101 99 98 97 95 93 91 90 88 80 78 85 88 85 84 87 90 94 99 103 106 107 109 112 114 117 121 125 128 130 130 128 127 129 132 135 137 138 140 143 145 152 158 166 174 182 194 200 203 206 205 201 203 209 212 215 219
96 355 29 100 111 79 204 242 335 339 317 1 80 75 62 76 90 87 85 92 98 100 100 101 105 106 102 99 97 99 101 101 102 101 100 100 99 96 96 90 83 86 91 91 91 90 91 93 96 101 105 108 111 112 111 110 110 111 115 118 121 123 123 124 125 127 128 127 126 129 133 138 143 145 148 152 165 188 207 217 218 214 214 220 225 225 224
103 64 47 109 148 348 334 323 356 9 351 9 61 68 48 47 103 104 97 96 99 100 102 102 102 101 94 85 82 89 94 94 97 100 100 102 103 101 100 101 100 96 94 94 93 93 96 99 100 102 104 108 114 115 112 110 108 108 113 116 117 120 121 122 124 127 129 130 132 136 142 147 153 157 161 167 173 182 193 205 214 217 219 227 236 237 235
108 107 71 87 137 331 351 350 343 357 340 334 35 83 46 3 122 129 120 116 114 111 112 114 108 98 86 71 61 75 89 91 93 96 97 96 95 97 99 102 104 103 99 96 91 90 95 100 101 103 103 107 115 116 115 117 115 110 114 118 119 124 127 128 133 137 139 140 139 141 149 156 160 162 166 175 184 189 193 195 200 205 208 211 220 228 234
84 111 99 76 88 302 319 295 286 275 232 228 163 110 42 6 132 143 132 129 135 130 128 128 115 95 81 57 45 76 89 93 94 94 92 90 88 88 90 93 98 104 108 106 101 98 97 88 79 83 91 104 118 120 117 123 123 111 106 107 107 117 128 133 142 153 158 158 159 170 181 181 183 184 186 192 198 200 202 204 205 208 210 212 215 219 224
60 96 107 97 122 238 271 267 282 300 295 281 73 93 23 4 139 146 135 130 139 141 143 146 126 93 81 112 138 110 104 102 101 99 97 96 93 89 86 87 90 94 97 102 105 116 135 109 68 53 40 55 104 115 104 108 122 110 93 80 61 76 112 135 156 176 182 189 210 237 242 234 231 228 227 228 227 226 228 230 230 229 227 226 224 225 227
64 86 95 91 146 244 262 271 291 308 312 322 57 111 250 62 138 147 137 131 138 145 147 145 119 99 137 155 146 130 117 107 104 104 102 101 99 95 89 84 81 80 82 87 90 93 102 101 83 72 53 30 48 73 73 73 63 37 29 344 332 333 319 291 271 274 268 250 252 259 261 260 258 254 252 252 249 247 246 245 244 243 242 241 238 235 235
58 84 98 66 268 262 295 304 309 320 339 80 103 204 211 115 125 140 134 128 133 139 136 123 98 119 138 138 137 133 122 112 105 100 99 99 98 93 88 81 72 68 70 72 69 69 73 75 69 62 53 45 51 52 48 50 50 40 21 338 316 312 308 307 302 299 298 292 285 281 278 277 275 271 268 266 264 262 260 258 255 252 251 252 251 250 248
45 82 90 70 184 327 336 326 329 16 85 169 225 220 145 121 123 131 128 126 128 125 119 113 111 121 130 133 136 136 130 121 112 108 110 108 100 94 88 78 66 56 54 55 54 50 51 50 42 34 27 28 42 41 33 38 37 20 358 339 324 317 313 311 310 307 305 303 300 296 292 289 287 285 282 279 277 275 274 272 271 269 266 264 263 262 261
51 73 48 64 189 328 340 332 330 30 43 189 118 84 102 117 120 120 118 120 123 119 115 116 121 126 131 134 135 133 128 123 119 120 125 123 119 115 105 85 66 47 31 37 49 53 54 57 56 44 28 20 25 19 12 18 9 346 337 332 323 319 315 309 307 306 304 303 301 299 297 294 293 291 290 288 286 285 284 283 282 281 278 275 272 270 268
86 104 43 75 203 346 10 37 90 49 56 125 110 94 90 97 107 111 110 114 122 124 123 125 129 132 132 132 132 129 125 123 119 117 117 119 119 114 108 105 62 38 29 42 64 75 74 73 74 66 45 24 14 15 14 6 343 326 325 322 317 316 313 310 308 306 304 304 302 300 298 296 294 293 292 291 290 290 289 288 286 284 283 281 280 278 275
71 95 108 127 110 62 59 72 85 86 90 103 108 105 97 91 101 110 110 111 119 124 127 128 129 131 132 132 133 131 128 126 125 122 118 112 105 94 90 93 354 26 42 55 79 90 80 64 55 46 32 18 11 13 359 336 320 316 316 314 314 314 313 311 309 307 305 305 303 302 302 299 297 296 294 292 291 291 291 290 287 285 284 284 284 284 283
75 79 98 109 91 78 78 81 87 93 96 98 103 104 98 94 102 109 111 114 118 122 125 126 125 126 129 128 127 128 130 132 133 134 131 112 89 61 50 56 123 173 66 60 83 97 79 43 13 4 4 350 347 348 334 321 314 313 312 311 312 312 311 310 309 306 305 304 302 302 301 299 299 299 296 293 291 290 290 290 288 286 285 285 286 287 286
91 86 110 112 99 93 91 90 90 93 94 96 101 104 103 104 107 109 112 116 118 120 123 122 121 123 126 126 124 128 136 138 137 139 140 133 70 9 20 43 146 146 85 76 87 70 31 26 358 322 317 318 323 322 317 314 314 313 313 312 312 310 309 307 305 303 302 300 298 297 297 297 297 298 296 295 292 290 289 289 287 286 285 285 286 288 289
78 120 132 116 108 105 101 98 98 100 100 99 99 105 113 117 116 116 120 124 126 126 125 124 123 124 127 132 137 140 143 143 144 144 142 156 260 355 9 26 168 158 132 184 229 277 309 301 295 298 301 304 306 306 305 306 309 311 312 311 310 309 308 305 303 301 300 298 296 296 295 295 297 298 298 296 294 292 292 290 289 287 285 284 285 286 288
71 97 119 111 99 95 102 106 107 109 111 110 106 108 115 120 121 123 125 126 128 129 129 130 133 129 126 132 139 142 143 143 146 152 157 174 224 330 354 81 174 177 200 228 245 263 269 275 285 293 300 301 298 300 303 308 314 318 319 318 317 315 312 309 305 302 301 300 298 297 295 295 296 297 299 298 296 293 291 289 287 286 284 283 283 283 284
139 181 154 132 113 112 127 122 116 115 117 117 116 115 114 117 122 126 127 122 118 120 125 133 143 142 137 137 140 142 146 148 148 155 165 174 252 304 313 209 181 192 209 224 244 256 257 271 283 291 301 301 299 305 316 325 331 335 338 338 333 326 320 317 312 308 306 305 304 304 304 304 302 299 297 296 294 292 288 284 282 280 279 279 277 277 278
172 171 159 146 137 143 142 130 123 123 121 119 119 118 117 114 112 117 129 127 120 119 119 120 130 137 137 149 161 155 151 153 156 168 197 253 279 283 273 214 193 195 203 219 235 241 251 272 287 301 314 313 312 324 333 334 335 340 345 345 342 336 331 330 329 327 323 320 319 319 317 316 313 309 304 296 288 285 284 283 280 278 276 275 274 274 276
117 138 148 146 139 139 142 140 136 132 125 119 117 119 124 121 110 113 133 141 137 137 134 127 122 115 113 144 174 168 155 159 176 196 243 287 274 238 209 181 177 180 192 208 219 234 254 271 290 323 329 319 317 329 335 333 335 341 343 341 340 339 338 340 345 345 339 332 328 324 320 319 318 316 311 304 297 290 284 284 285 284 282 280 278 275 275
112 131 139 135 128 126 134 145 150 150 147 137 128 128 134 132 125 130 149 161 160 154 147 143 142 130 132 162 173 173 170 186 210 233 277 295 267 236 229 223 210 208 208 206 221 247 252 233 225 304 304 304 314 329 333 333 336 340 340 337 337 339 341 344 345 343 337 332 327 323 321 322 324 322 318 314 311 306 301 299 300 298 292 288 284 280 277
121 128 126 121 120 122 126 131 134 138 142 136 128 128 128 126 126 128 142 163 174 174 170 169 159 137 143 161 171 180 202 211 219 244 275 279 265 256 257 256 255 257 253 239 240 251 237 219 258 308 309 306 326 334 331 329 332 334 334 336 339 340 340 340 338 336 336 334 329 325 325 328 331 332 330 324 320 318 321 326 330 326 305 284 282 286 284
136 140 132 121 118 121 127 129 127 130 136 138 135 133 123 114 123 132 142 159 174 176 171 165 142 135 144 161 180 201 215 214 211 233 252 255 267 278 280 277 274 271 264 257 255 247 224 219 242 297 322 299 317 326 322 324 329 329 328 335 346 347 337 331 328 330 334 335 331 326 325 328 334 337 335 332 330 333 340 346 346 342 334 317 309 309 303
126 137 132 115 104 106 117 124 127 134 142 147 152 155 148 137 132 141 157 168 171 164 157 155 150 153 163 177 195 211 219 224 236 255 259 262 272 281 282 282 282 283 278 263 248 232 218 218 227 238 255 274 290 309 319 323 327 328 330 341 354 354 342 330 325 326 329 331 329 323 320 325 335 341 343 348 354 357 359 356 348 342 340 341 339 330 317
115 119 120 116 114 120 130 142 155 162 158 160 171 175 173 176 170 169 182 185 172 159 165 171 172 177 188 200 221 238 241 246 260 270 273 277 281 283 284 283 283 290 292 266 232 218 218 224 230 235 247 266 277 300 319 321 322 330 340 347 354 353 345 333 327 325 324 324 326 324 322 329 343 352 360 10 11 2 355 346 335 327 325 330 333 329 320
132 130 131 134 138 146 156 168 180 184 175 163 170 173 170 180 183 182 187 188 183 183 186 183 183 193 211 226 244 255 254 258 272 280 284 286 286 286 287 286 286 291 290 252 218 213 218 224 227 230 240 258 271 297 318 318 316 329 343 346 348 351 348 339 327 323 321 323 328 332 336 345 354 0 7 8 0 350 340 332 329 330 333 337 340 338 336
153 156 159 160 164 168 168 170 198 206 202 183 179 186 188 186 182 178 180 189 198 201 197 193 202 222 233 236 248 257 261 273 287 291 290 289 287 286 286 284 284 284 265 222 206 206 211 213 216 224 235 251 270 297 315 314 312 328 341 342 345 350 350 343 330 325 330 341 347 344 346 358 11 17 12 0 351 345 342 342 348 354 354 353 353 351 349
165 167 169 174 180 180 171 120 171 205 212 210 201 199 203 207 208 204 195 195 204 206 206 216 242 256 256 259 265 271 280 292 300 301 296 290 287 287 285 282 277 262 225 204 200 201 203 206 213 220 232 258 284 302 310 308 311 329 339 339 343 348 347 342 335 336 349 358 350 341 343 358 26 31 12 358 353 358 4 6 4 1 358 356 356 356 352
179 178 178 187 194 187 161 109 119 158 190 209 207 208 215 222 224 223 216 210 211 214 223 249 263 262 269 274 277 285 298 304 306 303 297 290 290 290 285 274 252 217 202 201 200 198 198 204 208 208 227 271 292 300 301 302 316 334 338 337 342 345 343 338 340 359 7 358 349 349 355 5 33 33 19 14 16 18 15 10 5 0 358 355 354 357 360
204 211 209 206 203 193 180 171 179 187 187 187 199 211 216 217 220 223 224 227 231 236 249 263 267 269 275 279 285 299 310 312 308 303 294 289 290 290 275 240 200 192 198 203 199 195 200 210 209 209 245 278 284 287 289 298 322 336 336 336 343 346 342 336 341 25 17 4 2 8 9 10 27 38 25 18 16 13 10 8 5 1 357 353 350 353 358
308 226 215 207 198 195 197 203 214 221 211 189 190 209 213 216 222 224 227 237 244 245 248 254 257 262 268 276 295 315 322 320 314 306 293 281 282 275 244 208 189 189 196 198 195 196 207 216 215 234 270 276 272 270 277 297 326 336 332 338 349 351 345 340 341 21 24 14 16 21 18 16 23 32 24 10 3 4 5 5 3 359 353 350 352 351 348
341 190 191 185 171 175 193 210 220 224 225 231 234 216 214 223 231 230 230 239 241 237 236 245 254 261 269 284 308 329 337 333 322 305 282 269 268 254 232 210 194 188 189 192 196 204 213 219 230 255 271 270 261 258 269 298 327 332 331 345 356 355 350 346 341 328 329 3 22 26 26 25 18 10 7 4 358 358 359 360 360 356 351 350 359 9 6
132 159 165 160 162 175 197 228 240 241 252 265 265 236 232 244 251 246 235 235 239 239 238 245 254 260 270 292 318 337 341 338 331 307 269 257 251 238 226 214 201 192 188 191 199 208 216 229 249 262 267 262 253 254 271 300 318 322 332 357 4 359 355 349 329 307 300 296 303 11 17 18 12 359 350 346 348 353 356 356 355 354 354 4 24 36 36
131 166 174 172 183 203 230 254 277 292 285 271 264 266 261 255 251 246 238 237 244 244 241 243 249 256 274 303 328 337 331 331 338 334 268 238 232 227 217 209 202 195 190 191 199 208 220 245 261 264 259 248 244 254 277 292 300 312 336 0 3 1 1 355 329 311 314 319 308 279 287 312 333 346 348 347 357 2 0 356 356 1 16 41 49 44 41
227 215 213 208 204 210 235 254 260 262 264 263 275 286 281 266 251 245 244 249 255 248 240 244 252 263 284 307 320 320 310 313 332 357 346 252 242 240 215 201 198 195 193 198 207 213 224 248 255 250 243 241 247 262 272 272 279 308 344 354 355 358 2 0 345 325 318 318 316 317 302 272 277 321 343 354 6 6 360 357 2 18 49 65 56 43 38
299 279 287 288 260 229 227 258 245 226 241 266 279 287 291 286 270 253 248 258 269 270 265 261 261 268 287 304 310 309 301 290 293 323 331 287 246 237 221 208 207 210 212 215 218 216 220 239 241 235 238 246 251 250 245 248 263 297 338 348 350 355 1 3 357 345 331 317 305 309 301 255 242 279 301 313 12 7 359 2 16 38 66 72 61 47 36
304 298 311 311 272 237 239 262 270 253 258 268 266 266 275 285 278 260 251 257 267 272 275 276 271 270 282 304 317 316 306 288 277 296 318 305 262 244 233 223 222 227 227 223 221 225 241 250 237 226 231 239 231 215 215 233 260 286 308 328 344 356 1 2 359 357 359 1 350 339 337 202 205 257 266 82 27 8 5 20 35 52 72 74 63 52 45
315 310 310 307 290 268 258 256 258 260 258 250 246 249 254 259 262 261 259 259 262 265 271 276 270 264 275 302 315 313 310 299 282 281 305 320 292 250 237 228 222 221 216 214 222 246 268 258 237 224 217 213 208 204 208 226 250 270 283 303 334 357 2 1 0 3 17 30 31 26 42 82 98 91 79 53 17 7 32 49 52 62 76 72 63 67 75
317 316 313 307 301 290 272 258 258 261 258 252 250 252 254 256 258 259 258 257 258 261 266 268 258 253 265 289 296 299 310 313 290 275 291 305 298 273 253 239 232 232 233 236 247 263 269 255 241 237 230 211 205 207 215 227 239 251 262 279 323 351 356 359 3 8 20 39 41 39 56 86 96 93 87 61 28 31 51 52 58 76 87 76 72 82 84
306 311 317 315 304 290 273 263 263 262 259 257 255 255 255 254 252 252 255 257 256 257 260 261 256 252 257 271 279 285 298 306 296 288 291 287 277 273 271 263 254 251 252 258 266 270 264 252 243 241 237 217 206 213 226 234 235 236 242 259 307 337 341 349 0 7 14 35 47 48 59 81 96 103 98 79 60 55 49 47 61 88 98 88 83 85 81
299 303 309 310 304 293 283 280 278 273 268 264 259 258 259 256 249 247 251 256 256 256 258 258 256 254 256 263 274 285 291 292 292 295 293 285 280 279 277 275 272 265 256 259 274 282 273 256 247 246 242 223 212 216 229 237 233 229 234 248 278 307 317 332 352 3 8 19 49 63 65 72 87 102 106 94 78 64 52 58 83 101 104 98 88 83 83
291 293 289 287 289 290 286 283 279 277 277 270 260 256 260 259 249 243 244 249 253 257 259 257 255 256 258 263 271 280 284 278 278 288 295 294 294 297 295 286 277 268 258 261 275 288 282 259 249 248 237 220 214 218 227 232 233 236 245 257 269 280 294 313 334 350 0 10 30 78 92 86 87 92 92 96 110 114 110 113 117 115 112 105 94 88 91
288 291 286 281 281 283 282 277 272 277 288 286 269 255 253 253 243 236 239 248 252 257 262 260 254 253 258 262 265 271 280 276 269 275 285 290 290 296 303 302 289 273 265 267 273 275 262 240 238 237 223 211 211 219 228 233 238 246 254 261 265 269 281 299 315 329 344 356 6 32 82 100 105 105 97 90 96 106 112 118 121 121 119 113 103 96 95
297 301 295 285 282 285 290 286 275 275 285 294 284 258 242 232 226 229 244 255 254 256 265 265 256 251 256 258 255 257 268 281 279 277 284 287 283 284 297 311 310 293 275 267 264 256 240 229 227 223 213 208 211 219 229 237 244 251 254 256 259 263 271 285 299 312 326 337 346 360 21 37 61 96 105 99 89 86 92 102 110 115 118 116 110 107 107
310 312 304 288 280 282 285 280 272 270 272 273 268 253 229 217 220 233 248 254 253 255 256 252 248 251 259 259 251 245 249 262 277 290 300 301 292 280 283 299 310 305 283 260 245 233 225 221 217 212 210 211 214 221 229 238 246 252 251 248 249 253 262 273 285 298 310 319 327 338 350 357 358 1 60 106 100 89 82 85 92 101 112 119 120 124 131
324 326 319 296 281 279 275 265 259 262 261 252 238 221 211 218 231 242 249 253 260 265 259 250 250 256 262 263 258 247 242 246 258 276 298 312 310 302 299 303 307 302 287 260 228 210 207 208 208 209 212 215 218 225 235 243 246 244 240 238 240 245 253 263 274 285 296 305 314 323 328 331 329 320 304 277 170 149 163 167 114 84 100 121 141 170 202
332 335 328 306 293 293 285 263 249 249 256 254 233 208 200 214 245 253 250 255 268 276 271 263 261 262 266 269 266 256 244 239 244 257 275 297 316 328 332 327 316 305 295 282 250 216 208 205 205 210 217 220 223 231 240 242 234 228 226 229 235 242 250 258 267 277 286 293 301 308 310 309 305 298 284 269 248 228 222 227 236 244 247 245 241 241 240
330 333 324 308 305 312 306 276 251 237 238 238 219 201 200 223 253 246 238 247 266 284 286 274 264 262 278 288 272 255 246 242 242 248 258 273 290 308 326 333 328 318 307 295 278 257 235 215 208 211 220 228 237 249 251 236 220 213 213 218 226 236 245 255 264 273 279 283 284 285 284 284 285 280 269 259 249 238 232 233 236 240 245 248 247 246 244
Height
1458 1458 1458 1457 1456 1461 1466 1467 1467 1466 1463 1461 1459 1458 1457 1454 1453 1463 1474 1475 1477 1482 1483 1484 1486 1486 1486 1487 1487 1488 1488 1487 1488 1488 1488 1490 1491 1491 1492 1492 1492 1492 1492 1492 1493 1494 1493 1492 1492 1493 1495 1498 1500 1502 1504 1508 1511 1512 1513 1515 1518 1520 1521 1522 1524 1525 1527 1529 1530 1532 1532 1534 1538 1541 1542 1543 1543 1543 1544 1544 1545 1546 1546 1547 1547 1548 1549
1459 1460 1460 1459 1459 1462 1467 1470 1472 1472 1469 1466 1465 1465 1462 1458 1457 1462 1470 1476 1479 1481 1482 1484 1487 1488 1488 1488 1489 1490 1490 1490 1491 1491 1492 1494 1495 1495 1496 1496 1496 1496 1495 1495 1496 1495 1494 1494 1495 1496 1499 1501 1503 1504 1505 1507 1510 1512 1514 1516 1519 1520 1521 1523 1524 1526 1527 1528 1529 1531 1531 1532 1536 1539 1541 1543 1543 1543 1543 1544 1544 1545 1546 1546 1547 1548 1548
1465 1463 1462 1463 1463 1464 1468 1473 1475 1476 1473 1467 1466 1468 1465 1464 1469 1471 1472 1477 1482 1484 1483 1486 1490 1492 1490 1491 1492 1492 1493 1494 1493 1493 1495 1497 1498 1499 1499 1500 1500 1499 1498 1499 1499 1498 1497 1497 1498 1500 1503 1504 1505 1506 1507 1508 1510 1513 1515 1518 1519 1520 1521 1523 1524 1526 1528 1528 1529 1530 1531 1533 1535 1537 1539 1541 1542 1543 1543 1543 1543 1544 1545 1546 1546 1547 1548
1470 1467 1466 1467 1468 1467 1469 1476 1480 1481 1478 1472 1469 1470 1468 1469 1473 1476 1477 1479 1483 1484 1484 1487 1493 1494 1492 1493 1495 1494 1495 1496 1495 1495 1497 1499 1501 1501 1502 1503 1503 1502 1501 1501 1501 1500 1500 1500 1501 1503 1505 1506 1507 1508 1509 1510 1512 1514 1516 1518 1519 1519 1521 1522 1524 1526 1527 1529 1530 1530 1532 1533 1535 1536 1538 1539 1540 1540 1541 1543 1543 1544 1544 1545 1546 1547 1547
1471 1470 1469 1470 1472 1474 1478 1483 1486 1486 1481 1476 1473 1472 1471 1471 1472 1475 1478 1480 1482 1484 1485 1489 1495 1496 1494 1495 1496 1495 1495 1496 1496 1496 1498 1501 1502 1503 1504 1505 1504 1503 1503 1504 1503 1503 1503 1503 1503 1505 1506 1507 1509 1510 1511 1512 1513 1515 1516 1517 1518 1519 1520 1521 1523 1524 1526 1528 1529 1530 1532 1533 1534 1535 1536 1537 1538 1538 1539 1541 1543 1543 1544 1544 1545 1546 1546
1472 1473 1472 1472 1477 1482 1485 1487 1487 1486 1481 1476 1474 1475 1476 1476 1476 1477 1479 1481 1484 1487 1489 1493 1496 1497 1497 1498 1498 1498 1498 1497 1497 1498 1500 1502 1503 1504 1505 1507 1507 1506 1506 1507 1507 1507 1507 1507 1507 1508 1509 1509 1510 1512 1513 1514 1515 1515 1516 1516 1517 1519 1520 1521 1522 1524 1525 1526 1528 1530 1531 1532 1533 1534 1534 1535 1536 1536 1538 1540 1542 1542 1543 1543 1544 1544 1545
1473 1476 1475 1476 1482 1486 1486 1485 1484 1483 1481 1476 1474 1478 1482 1482 1481 1482 1484 1486 1488 1490 1493 1496 1498 1498 1498 1499 1500 1501 1501 1500 1499 1500 1502 1504 1506 1507 1508 1509 1510 1510 1509 1510 1512 1512 1512 1511 1511 1511 1512 1513 1513 1514 1514 1515 1516 1517 1517 1517 1518 1519 1521 1522 1523 1524 1525 1526 1528 1529 1530 1531 1532 1532 1533 1533 1534 1536 1538 1539 1540 1540 1540 1541 1541 1541 1543
1475 1479 1478 1480 1486 1487 1485 1483 1482 1481 1482 1479 1478 1482 1487 1486 1485 1486 1490 1493 1493 1494 1495 1497 1499 1500 1497 1498 1501 1503 1504 1503 1503 1503 1505 1507 1508 1510 1511 1512 1513 1513 1513 1514 1515 1516 1516 1516 1515 1514 1515 1516 1516 1515 1515 1516 1517 1518 1519 1519 1521 1522 1523 1524 1525 1525 1526 1527 1528 1529 1529 1530 1531 1531 1532 1533 1534 1535 1536 1537 1537 1538 1538 1538 1539 1539 1541
1476 1481 1486 1487 1488 1487 1486 1487 1487 1487 1489 1488 1485 1487 1489 1488 1487 1488 1491 1495 1498 1497 1497 1498 1499 1499 1496 1499 1505 1506 1506 1506 1506 1507 1508 1510 1511 1512 1513 1513 1514 1515 1515 1516 1517 1518 1519 1519 1519 1518 1518 1519 1518 1517 1516 1516 1517 1519 1520 1521 1522 1523 1524 1525 1526 1526 1527 1527 1528 1529 1529 1530 1530 1530 1531 1532 1533 1534 1534 1535 1535 1535 1535 1535 1536 1536 1537
1475 1479 1487 1489 1488 1488 1491 1492 1491 1489 1491 1490 1488 1489 1490 1489 1489 1489 1489 1493 1497 1498 1497 1498 1497 1496 1500 1508 1511 1510 1509 1509 1509 1510 1511 1512 1513 1514 1515 1515 1516 1516 1517 1517 1518 1519 1519 1520 1520 1520 1520 1521 1520 1519 1519 1519 1519 1520 1521 1521 1522 1523 1524 1524 1525 1526 1527 1527 1528 1529 1529 1530 1530 1530 1531 1531 1532 1532 1532 1533 1533 1533 1533 1533 1533 1533 1534
1475 1476 1484 1491 1492 1493 1493 1492 1489 1487 1488 1488 1487 1490 1493 1492 1491 1491 1490 1492 1496 1497 1496 1497 1496 1498 1508 1516 1515 1512 1512 1512 1512 1513 1513 1513 1515 1515 1516 1517 1517 1518 1518 1519 1519 1519 1519 1520 1520 1520 1520 1520 1520 1521 1521 1521 1522 1522 1522 1522 1523 1523 1523 1524 1524 1525 1526 1526 1527 1528 1528 1529 1529 1529 1529 1530 1530 1531 1531 1531 1531 1531 1531 1531 1531 1532 1531
1480 1482 1490 1495 1495 1494 1492 1490 1488 1487 1487 1487 1487 1491 1494 1492 1491 1493 1492 1493 1496 1497 1496 1497 1498 1500 1509 1515 1515 1515 1515 1515 1515 1515 1515 1515 1516 1517 1518 1518 1519 1519 1520 1520 1520 1519 1519 1520 1520 1520 1520 1520 1520 1521 1521 1521 1522 1522 1523 1523 1523 1523 1523 1523 1524 1524 1525 1526 1526 1526 1527 1527 1527 1527 1527 1528 1528 1528 1529 1529 1529 1529 1529 1529 1529 1529 1529
1483 1486 1493 1497 1496 1493 1491 1489 1488 1486 1487 1489 1491 1491 1492 1492 1492 1495 1495 1494 1497 1498 1497 1498 1500 1502 1506 1510 1513 1516 1516 1516 1517 1517 1517 1517 1518 1518 1518 1519 1519 1520 1520 1520 1520 1519 1520 1520 1520 1520 1520 1520 1521 1521 1521 1521 1521 1522 1522 1523 1523 1523 1523 1523 1523 1524 1524 1525 1525 1525 1525 1525 1525 1525 1525 1525 1526 1525 1525 1525 1525 1525 1525 1525 1525 1525 1525
1486 1489 1493 1497 1496 1493 1490 1489 1488 1486 1487 1491 1492 1491 1492 1493 1494 1496 1496 1496 1497 1498 1498 1500 1502 1506 1509 1511 1514 1515 1516 1517 1518 1519 1519 1519 1520 1520 1520 1520 1520 1520 1520 1520 1520 1520 1520 1521 1520 1520 1521 1520 1521 1521 1520 1521 1521 1522 1522 1522 1522 1522 1522 1522 1522 1523 1523 1524 1524 1524 1524 1523 1523 1523 1523 1523 1523 1522 1522 1521 1520 1520 1520 1520 1519 1519 1519
1490 1494 1497 1500 1500 1497 1491 1488 1488 1489 1490 1492 1493 1493 1493 1494 1495 1496 1497 1497 1497 1499 1500 1502 1505 1508 1511 1513 1515 1516 1517 1518 1519 1520 1521 1521 1521 1522 1522 1522 1522 1522 1522 1522 1522 1522 1521 1522 1521 1521 1521 1520 1520 1520 1521 1521 1522 1522 1522 1522 1522 1521 1521 1522 1522 1522 1522 1522 1522 1522 1522 1521 1521 1521 1520 1520 1519 1519 1518 1517 1516 1515 1515 1514 1514 1513 1513
1492 1499 1504 1505 1505 1501 1494 1490 1491 1494 1495 1495 1494 1493 1495 1496 1497 1497 1498 1499 1499 1499 1501 1504 1507 1510 1512 1515 1516 1517 1519 1519 1520 1521 1522 1522 1523 1524 1524 1524 1524 1523 1523 1524 1523 1523 1523 1523 1523 1522 1521 1521 1521 1521 1522 1522 1522 1522 1522 1522 1522 1522 1522 1522 1521 1521 1521 1521 1520 1520 1519 1519 1518 1518 1517 1516 1516 1515 1514 1513 1512 1512 1511 1510 1510 1509 1509
1495 1499 1504 1505 1504 1501 1497 1495 1496 1497 1497 1497 1495 1495 1496 1499 1499 1499 1500 1502 1503 1503 1504 1506 1509 1511 1514 1516 1517 1518 1519 1520 1521 1522 1523 1523 1524 1525 1525 1525 1525 1525 1524 1525 1525 1525 1524 1524 1524 1523 1523 1522 1522 1522 1523 1523 1523 1523 1523 1523 1522 1522 1522 1521 1521 1520 1520 1519 1519 1518 1518 1517 1516 1515 1514 1513 1512 1512 1511 1510 1510 1509 1508 1507 1507 1506 1505
1498 1501 1505 1504 1503 1502 1501 1500 1500 1499 1499 1500 1498 1497 1499 1501 1502 1503 1503 1505 1506 1507 1507 1509 1511 1513 1515 1516 1518 1519 1520 1521 1522 1523 1524 1524 1525 1525 1525 1525 1525 1525 1525 1526 1526 1525 1525 1525 1525 1524 1524 1524 1524 1524 1524 1524 1524 1524 1523 1523 1522 1522 1521 1520 1519 1518 1518 1517 1517 1516 1516 1515 1513 1512 1511 1510 1509 1509 1508 1508 1507 1506 1505 1504 1504 1503 1502
1500 1505 1507 1505 1503 1504 1503 1503 1504 1503 1503 1503 1502 1502 1503 1505 1506 1507 1508 1509 1510 1511 1512 1513 1514 1516 1517 1518 1519 1520 1521 1522 1523 1524 1524 1525 1525 1526 1526 1526 1526 1526 1526 1526 1525 1525 1525 1525 1525 1525 1524 1524 1524 1524 1524 1524 1524 1523 1523 1522 1521 1520 1519 1518 1517 1516 1515 1515 1514 1514 1513 1512 1511 1510 1509 1508 1507 1506 1505 1505 1504 1503 1502 1501 1500 1499 1498
1501 1506 1508 1506 1505 1506 1505 1505 1506 1506 1506 1507 1506 1506 1508 1508 1510 1511 1512 1513 1514 1514 1515 1516 1517 1518 1519 1520 1520 1521 1522 1523 1523 1524 1525 1525 1525 1525 1526 1526 1526 1526 1526 1526 1525 1525 1525 1525 1525 1525 1524 1524 1523 1524 1523 1523 1522 1522 1521 1520 1519 1518 1517 1516 1515 1514 1513 1512 1511 1511 1510 1509 1508 1507 1506 1505 1504 1504 1503 1502 1501 1500 1499 1498 1498 1497 1495
1505 1507 1508 1506 1507 1508 1508 1507 1507 1508 1508 1509 1509 1510 1511 1511 1512 1513 1514 1515 1516 1516 1517 1518 1519 1519 1521 1521 1522 1522 1523 1524 1524 1525 1525 1525 1525 1526 1526 1526 1526 1526 1526 1526 1526 1526 1526 1525 1525 1525 1524 1523 1523 1523 1523 1522 1521 1521 1520 1518 1517 1516 1515 1514 1513 1512 1511 1510 1509 1508 1507 1506 1505 1505 1504 1503 1502 1501 1501 1500 1499 1498 1496 1495 1495 1494 1493
1507 1507 1506 1505 1506 1509 1510 1509 1509 1510 1510 1510 1511 1512 1512 1513 1514 1514 1515 1516 1517 1518 1519 1520 1520 1521 1522 1522 1523 1523 1524 1525 1525 1526 1526 1526 1526 1526 1526 1526 1527 1527 1527 1526 1526 1526 1526 1526 1526 1526 1525 1524 1524 1524 1523 1523 1522 1521 1520 1519 1517 1516 1514 1513 1512 1510 1509 1508 1507 1506 1505 1504 1503 1502 1502 1501 1500 1499 1498 1498 1497 1496 1495 1493 1492 1491 1490
1504 1504 1504 1504 1505 1508 1510 1510 1510 1511 1511 1512 1512 1513 1514 1514 1515 1515 1515 1516 1517 1519 1520 1521 1521 1521 1522 1523 1523 1524 1524 1525 1525 1526 1526 1526 1526 1526 1526 1526 1527 1527 1527 1527 1527 1526 1526 1526 1526 1526 1525 1525 1524 1524 1524 1524 1523 1522 1521 1519 1517 1515 1514 1512 1511 1509 1508 1507 1506 1505 1503 1502 1500 1499 1498 1498 1498 1497 1496 1495 1494 1493 1493 1491 1490 1489 1488
1503 1504 1505 1505 1505 1507 1509 1510 1511 1512 1512 1513 1513 1514 1515 1515 1516 1516 1516 1517 1518 1519 1520 1521 1521 1522 1523 1523 1523 1524 1524 1525 1525 1526 1526 1526 1526 1526 1526 1526 1526 1527 1527 1527 1526 1526 1526 1526 1526 1526 1526 1525 1525 1525 1524 1524 1523 1522 1520 1519 1516 1515 1513 1512 1510 1509 1508 1506 1505 1503 1501 1500 1499 1497 1495 1494 1494 1494 1493 1492 1491 1490 1490 1489 1488 1487 1486
1504 1505 1506 1507 1507 1508 1510 1511 1512 1513 1513 1514 1514 1514 1515 1516 1516 1517 1517 1517 1518 1519 1520 1521 1522 1522 1522 1523 1523 1523 1524 1524 1525 1525 1526 1526 1526 1526 1526 1527 1527 1527 1527 1526 1526 1526 1526 1526 1526 1526 1526 1525 1525 1525 1524 1523 1522 1521 1520 1518 1516 1514 1512 1511 1510 1509 1507 1505 1504 1502 1500 1498 1497 1496 1494 1492 1491 1490 1489 1489 1488 1488 1487 1486 1485 1484 1483
1506 1507 1508 1509 1510 1510 1511 1512 1513 1514 1515 1515 1515 1516 1516 1516 1517 1517 1518 1518 1519 1519 1520 1521 1521 1522 1522 1523 1523 1523 1524 1524 1524 1525 1525 1525 1525 1526 1526 1526 1527 1527 1527 1527 1526 1526 1526 1526 1526 1525 1525 1525 1525 1524 1524 1523 1522 1521 1519 1517 1515 1513 1512 1511 1509 1508 1506 1504 1502 1501 1499 1498 1496 1494 1493 1492 1490 1488 1487 1486 1485 1485 1484 1483 1482 1481 1480
1508 1509 1509 1510 1512 1512 1513 1513 1514 1515 1516 1516 1516 1517 1517 1517 1517 1517 1518 1518 1519 1520 1520 1521 1521 1522 1522 1523 1523 1523 1523 1523 1524 1524 1524 1524 1524 1524 1525 1525 1525 1525 1526 1526 1525 1525 1525 1526 1525 1525 1525 1525 1524 1524 1523 1522 1521 1520 1519 1517 1515 1513 1512 1510 1509 1507 1505 1503 1502 1500 1498 1496 1495 1494 1492 1491 1490 1488 1487 1485 1484 1483 1481 1481 1480 1479 1478
1510 1510 1511 1511 1513 1514 1514 1514 1515 1516 1516 1516 1517 1517 1517 1517 1517 1517 1517 1518 1519 1519 1520 1521 1521 1522 1522 1522 1522 1523 1523 1523 1523 1523 1523 1523 1523 1523 1523 1523 1523 1523 1523 1523 1523 1524 1524 1525 1525 1524 1524 1524 1523 1523 1523 1522 1521 1520 1518 1516 1514 1512 1511 1510 1508 1506 1504 1502 1500 1499 1497 1496 1495 1493 1492 1491 1489 1488 1487 1486 1485 1483 1481 1479 1479 1478 1477
1511 1511 1512 1512 1514 1514 1515 1515 1516 1516 1516 1517 1517 1517 1517 1518 1518 1518 1518 1518 1518 1519 1520 1520 1521 1521 1521 1521 1522 1522 1522 1522 1522 1522 1522 1522 1521 1521 1521 1521 1521 1521 1521 1521 1521 1522 1523 1524 1524 1523 1523 1523 1523 1522 1522 1521 1520 1519 1517 1515 1514 1512 1510 1509 1507 1505 1503 1501 1500 1498 1496 1495 1494 1493 1492 1491 1490 1488 1487 1486 1484 1482 1481 1479 1477 1476 1475
1510 1511 1511 1512 1513 1514 1515 1515 1515 1516 1516 1516 1516 1517 1517 1517 1518 1518 1518 1518 1519 1519 1519 1520 1520 1521 1521 1521 1521 1521 1521 1521 1521 1521 1520 1520 1519 1519 1519 1518 1518 1518 1518 1518 1519 1520 1522 1522 1523 1522 1522 1522 1522 1522 1521 1520 1519 1518 1517 1515 1513 1511 1509 1508 1506 1504 1502 1500 1499 1497 1496 1494 1493 1493 1492 1491 1490 1488 1487 1486 1484 1482 1480 1478 1477 1475 1473
1509 1510 1511 1511 1512 1513 1514 1514 1515 1515 1515 1516 1516 1516 1516 1517 1517 1518 1518 1518 1518 1518 1518 1519 1519 1520 1520 1520 1520 1520 1520 1520 1520 1519 1519 1518 1517 1516 1516 1515 1515 1516 1516 1516 1518 1519 1520 1521 1521 1521 1521 1521 1521 1521 1520 1519 1518 1517 1516 1514 1513 1511 1509 1507 1505 1504 1502 1500 1498 1497 1495 1494 1493 1493 1492 1491 1490 1488 1487 1485 1484 1482 1480 1478 1477 1475 1473
1510 1510 1510 1511 1512 1512 1513 1513 1513 1514 1514 1515 1515 1515 1515 1516 1516 1517 1517 1517 1517 1517 1518 1518 1518 1519 1519 1519 1519 1519 1519 1518 1518 1517 1516 1515 1514 1514 1513 1513 1512 1513 1514 1515 1517 1518 1519 1520 1520 1520 1520 1521 1520 1520 1519 1519 1518 1516 1515 1514 1512 1510 1508 1506 1505 1503 1502 1500 1499 1497 1496 1495 1494 1493 1492 1491 1490 1489 1487 1486 1485 1483 1481 1479 1477 1475 1474
1510 1510 1510 1511 1511 1511 1512 1513 1513 1513 1514 1514 1514 1514 1515 1515 1515 1516 1516 1516 1516 1516 1517 1517 1517 1518 1518 1518 1518 1518 1517 1516 1515 1514 1513 1512 1512 1511 1510 1510 1510 1510 1512 1514 1515 1517 1518 1518 1519 1519 1520 1520 1519 1519 1519 1518 1516 1515 1514 1513 1511 1510 1508 1506 1504 1503 1502 1500 1499 1497 1496 1494 1493 1493 1492 1491 1490 1489 1488 1486 1485 1483 1481 1479 1478 1476 1474
1510 1509 1509 1510 1510 1511 1512 1512 1512 1512 1513 1513 1513 1513 1514 1514 1514 1515 1515 1515 1515 1516 1516 1516 1516 1517 1517 1517 1517 1516 1515 1514 1513 1512 1511 1511 1510 1509 1509 1508 1508 1509 1511 1513 1514 1516 1517 1517 1518 1518 1518 1518 1518 1518 1517 1516 1515 1515 1514 1512 1511 1509 1507 1505 1504 1503 1502 1500 1499 1497 1496 1495 1494 1493 1492 1491 1491 1490 1488 1487 1485 1483 1481 1479 1478 1476 1475
1509 1509 1509 1510 1510 1511 1511 1512 1512 1512 1512 1512 1512 1513 1513 1514 1514 1514 1514 1514 1514 1515 1515 1515 1516 1516 1516 1516 1515 1515 1514 1512 1511 1511 1510 1510 1509 1509 1508 1508 1508 1509 1511 1512 1513 1515 1515 1516 1517 1517 1517 1517 1517 1517 1516 1515 1514 1514 1513 1512 1510 1508 1506 1504 1503 1502 1501 1500 1499 1497 1496 1495 1494 1494 1493 1492 1491 1490 1489 1487 1485 1484 1481 1479 1477 1476 1475
1508 1508 1509 1509 1510 1510 1511 1511 1511 1511 1511 1511 1512 1512 1513 1513 1513 1513 1513 1513 1513 1514 1514 1514 1514 1515 1515 1515 1514 1513 1512 1511 1510 1510 1509 1509 1509 1508 1508 1508 1509 1509 1510 1511 1513 1514 1514 1515 1515 1516 1516 1516 1516 1515 1515 1514 1513 1513 1512 1511 1509 1507 1506 1504 1503 1502 1501 1500 1499 1498 1496 1495 1495 1494 1493 1492 1491 1490 1489 1488 1486 1484 1482 1479 1477 1476 1475
1508 1508 1509 1510 1510 1511 1511 1511 1511 1511 1511 1511 1511 1512 1512 1512 1512 1512 1512 1512 1512 1513 1513 1513 1513 1514 1514 1514 1513 1512 1512 1511 1510 1509 1508 1508 1508 1508 1508 1508 1509 1509 1510 1511 1512 1513 1514 1514 1514 1514 1515 1514 1514 1514 1513 1513 1512 1512 1511 1510 1509 1507 1505 1504 1503 1501 1500 1500 1499 1498 1497 1495 1495 1494 1493 1492 1492 1491 1490 1488 1487 1485 1482 1480 1478 1477 1476
1509 1509 1509 1510 1510 1510 1510 1510 1511 1511 1510 1510 1510 1511 1511 1511 1511 1511 1511 1511 1511 1512 1512 1512 1513 1513 1513 1513 1512 1512 1511 1511 1510 1509 1508 1508 1508 1508 1508 1508 1508 1509 1509 1510 1511 1512 1512 1513 1513 1513 1513 1513 1513 1513 1512 1512 1511 1511 1511 1509 1508 1506 1505 1503 1502 1501 1500 1499 1498 1497 1496 1495 1494 1493 1493 1492 1492 1491 1490 1489 1487 1485 1483 1481 1480 1479 1478
1510 1509 1509 1509 1509 1509 1509 1510 1510 1510 1510 1509 1510 1510 1510 1510 1510 1510 1510 1510 1511 1511 1511 1512 1512 1512 1512 1512 1511 1511 1511 1510 1510 1509 1508 1508 1508 1508 1508 1508 1508 1508 1509 1510 1510 1511 1511 1511 1512 1512 1512 1512 1512 1511 1511 1510 1511 1511 1510 1509 1507 1506 1504 1503 1501 1500 1499 1498 1497 1497 1496 1495 1494 1493 1493 1493 1492 1492 1491 1489 1488 1486 1484 1482 1482 1481 1480
1509 1509 1508 1508 1508 1508 1508 1508 1509 1509 1508 1508 1509 1509 1509 1509 1509 1509 1509 1509 1509 1510 1510 1510 1510 1511 1511 1511 1510 1510 1510 1510 1509 1509 1508 1508 1508 1508 1508 1508 1508 1508 1509 1509 1510 1510 1510 1510 1510 1510 1510 1510 1510 1510 1510 1509 1510 1510 1509 1508 1507 1506 1504 1502 1501 1499 1498 1497 1496 1496 1495 1494 1493 1493 1493 1493 1493 1492 1491 1490 1488 1487 1485 1484 1484 1483 1482
1508 1507 1507 1507 1507 1507 1508 1507 1507 1507 1507 1508 1508 1508 1508 1508 1508 1508 1508 1508 1508 1509 1509 1509 1509 1509 1510 1510 1509 1509 1509 1508 1508 1508 1507 1507 1507 1507 1507 1507 1507 1507 1508 1508 1509 1509 1509 1509 1509 1509 1509 1509 1509 1509 1509 1509 1509 1509 1508 1507 1507 1505 1504 1502 1501 1499 1498 1496 1495 1494 1493 1493 1493 1493 1493 1493 1493 1493 1492 1490 1489 1488 1487 1486 1486 1485 1485
1507 1507 1506 1506 1506 1506 1506 1506 1506 1506 1506 1506 1507 1507 1507 1507 1507 1507 1507 1507 1507 1507 1507 1508 1508 1508 1508 1508 1508 1508 1508 1507 1507 1507 1507 1506 1506 1506 1506 1506 1506 1507 1507 1507 1507 1507 1507 1508 1508 1508 1508 1508 1508 1508 1508 1508 1508 1508 1507 1507 1506 1505 1504 1503 1501 1500 1498 1497 1495 1494 1493 1493 1493 1493 1493 1493 1493 1493 1492 1491 1490 1489 1489 1488 1488 1487 1487
1506 1506 1505 1505 1505 1505 1504 1504 1504 1504 1505 1505 1505 1505 1505 1505 1506 1506 1506 1506 1506 1506 1506 1506 1507 1507 1507 1507 1507 1507 1507 1506 1506 1506 1506 1506 1505 1505 1505 1505 1505 1506 1506 1506 1506 1506 1506 1506 1506 1507 1507 1506 1506 1507 1507 1506 1506 1507 1506 1506 1506 1505 1504 1503 1502 1500 1499 1498 1496 1495 1494 1493 1493 1494 1494 1494 1493 1493 1493 1492 1491 1491 1490 1490 1490 1490 1490
1505 1504 1504 1503 1503 1503 1503 1503 1503 1503 1503 1503 1503 1503 1503 1503 1504 1504 1504 1504 1505 1505 1505 1505 1506 1506 1506 1506 1506 1506 1506 1506 1505 1505 1505 1505 1505 1504 1504 1504 1504 1504 1504 1504 1504 1504 1504 1504 1505 1505 1505 1505 1505 1505 1505 1505 1505 1505 1505 1505 1505 1504 1504 1503 1502 1501 1500 1499 1497 1496 1495 1494 1494 1494 1494 1494 1494 1494 1493 1493 1493 1493 1492 1492 1492 1492 1492
1503 1503 1502 1502 1502 1501 1501 1501 1501 1501 1501 1501 1500 1500 1500 1501 1501 1502 1503 1503 1503 1503 1504 1504 1504 1504 1505 1505 1505 1505 1505 1504 1504 1504 1504 1503 1503 1503 1503 1503 1503 1503 1503 1503 1503 1502 1502 1502 1503 1503 1504 1504 1504 1504 1504 1504 1504 1504 1504 1504 1504 1504 1503 1502 1502 1501 1500 1499 1498 1497 1497 1496 1495 1495 1495 1495 1495 1494 1494 1494 1494 1494 1494 1493 1493 1493 1493
1502 1502 1501 1501 1500 1500 1500 1500 1499 1499 1499 1498 1498 1498 1498 1498 1499 1500 1501 1501 1502 1502 1502 1502 1503 1503 1503 1504 1504 1504 1503 1503 1503 1503 1503 1502 1502 1502 1502 1502 1501 1501 1501 1501 1501 1501 1501 1501 1501 1501 1502 1502 1502 1502 1503 1503 1503 1503 1503 1503 1503 1503 1502 1502 1501 1501 1500 1500 1499 1498 1498 1497 1496 1496 1495 1495 1495 1495 1495 1495 1494 1494 1494 1495 1495 1495 1495
1500 1500 1500 1499 1498 1498 1498 1498 1498 1497 1497 1496 1496 1496 1496 1497 1498 1498 1499 1500 1500 1500 1501 1501 1501 1501 1502 1502 1502 1502 1502 1502 1501 1501 1501 1501 1501 1501 1501 1500 1499 1499 1499 1499 1499 1499 1499 1499 1499 1500 1500 1500 1501 1501 1501 1502 1502 1502 1502 1502 1502 1502 1502 1501 1501 1501 1500 1500 1499 1499 1498 1498 1497 1497 1496 1496 1495 1495 1495 1495 1495 1495 1495 1496 1496 1496 1496
1499 1498 1498 1497 1497 1496 1496 1496 1496 1496 1495 1495 1494 1494 1495 1496 1496 1497 1498 1498 1499 1499 1499 1499 1499 1500 1500 1500 1500 1500 1500 1500 1500 1500 1500 1500 1500 1500 1499 1499 1498 1498 1498 1498 1498 1498 1498 1498 1498 1499 1499 1499 1500 1500 1500 1500 1501 1501 1501 1501 1501 1501 1501 1501 1501 1500 1500 1499 1499 1499 1498 1498 1498 1497 1497 1497 1496 1496 1496 1496 1496 1496 1496 1497 1497 1497 1498
1497 1497 1496 1496 1495 1495 1495 1494 1494 1494 1494 1494 1494 1494 1494 1495 1495 1496 1497 1497 1497 1498 1498 1498 1498 1498 1498 1498 1498 1499 1499 1499 1499 1499 1499 1499 1498 1498 1498 1498 1498 1497 1497 1497 1497 1496 1496 1497 1497 1497 1498 1498 1498 1499 1499 1499 1500 1499 1499 1500 1500 1500 1500 1500 1500 1500 1499 1499 1499 1498 1498 1498 1497 1497 1497 1497 1497 1497 1497 1497 1497 1497 1497 1498 1498 1498 1499
1496 1495 1495 1494 1494 1493 1493 1493 1493 1493 1493 1493 1493 1493 1494 1494 1494 1495 1495 1496 1496 1496 1497 1497 1497 1497 1497 1497 1496 1497 1497 1498 1498 1498 1498 1498 1497 1497 1497 1497 1497 1497 1496 1496 1496 1496 1496 1496 1496 1496 1496 1497 1498 1498 1498 1499 1498 1498 1498 1498 1498 1498 1499 1498 1498 1499 1499 1498 1498 1498 1498 1497 1497 1497 1497 1496 1496 1497 1497 1497 1497 1497 1498 1498 1498 1499 1499
1495 1494 1493 1493 1492 1492 1492 1492 1492 1492 1492 1492 1493 1493 1493 1493 1493 1494 1494 1495 1495 1495 1495 1495 1495 1495 1495 1495 1495 1495 1495 1496 1496 1497 1497 1497 1497 1497 1496 1496 1496 1496 1495 1495 1495 1495 1495 1495 1495 1495 1496 1496 1497 1497 1497 1497 1497 1497 1497 1497 1497 1497 1497 1497 1497 1497 1497 1497 1497 1497 1497 1497 1497 1496 1496 1496 1496 1496 1496 1497 1497 1497 1497 1498 1498 1498 1499
1494 1493 1492 1491 1491 1491 1490 1491 1491 1491 1491 1491 1491 1492 1492 1492 1493 1493 1494 1494 1494 1494 1494 1494 1494 1494 1494 1494 1493 1493 1493 1494 1494 1495 1496 1496 1496 1496 1496 1496 1495 1495 1495 1495 1494 1494 1494 1494 1494 1495 1495 1496 1496 1496 1496 1496 1496 1496 1496 1496 1496 1496 1496 1496 1496 1496 1496 1496 1496 1496 1496 1496 1496 1495 1495 1495 1495 1495 1496 1496 1496 1496 1496 1497 1497 1497 1497